Weather History for Flint, MI

Change the Weather History Date:

Monday, July 2, 2012

  Actual Average Record
Temperature  
Mean Temperature 78 °F 70 °F  
Max Temperature 96 °F 82 °F 100 °F (1931)
Min Temperature 59 °F 59 °F 40 °F (2001)
Degree Days  
Heating Degree Days 0 1  
Month to date heating degree days 0 2  
Since 1 June heating degree days 48 68  
Since 1 July heating degree days 0 2  
Cooling Degree Days 13 6  
Month to date cooling degree days 24 12  
Year to date cooling degree days 294 156  
Since 1 June cooling degree days 206 124  
Growing Degree Days 28 (Base 50)    
Moisture  
Dew Point 58 °F    
Average Humidity 52    
Maximum Humidity 78    
Minimum Humidity 26    
Precipitation  
Precipitation 0.00 in 0.09 in 1.26 in (2008)
Month to date precipitation T 0.19  
Year to date precipitation 15.01 14.25  
Snow  
Snow 0.00 in 0.00 in 0.00 in ()
Month to date snowfall 0.0 0.0  
Since 1 June snowfall 0.0 0.0  
Since 1 July snowfall 0.0 0.0  
Snow Depth 0.00 in    
Sea Level Pressure  
Sea Level Pressure 29.97 in    
Wind  
Wind Speed 5 mph (ESE)    
Max Wind Speed 12 mph    
Max Gust Speed 18 mph    
Visibility 10 miles    
Events      
T = Trace of Precipitation, MM = Missing Value Source: NWS Daily Summary

Daily Weather History Graph

Daily Weather History Graph

Search for Another Location

Airport:

Trip Planner

Search our weather history database for the weather conditions in past years. The results will help you decide how hot, cold, wet, or windy it might be!

Date:

Astronomy

Jul. 02, 2012 Rise Set
Actual Time 6:00 AM EDT 9:17 PM EDT
Civil Twilight 5:25 AM EDT 9:52 PM EDT
Nautical Twilight 4:40 AM EDT 10:37 PM EDT
Astronomical Twilight 3:44 AM EDT 11:33 PM EDT
Moon 8:18 PM EDT (7/2) 4:47 AM EDT (7/2)
Length of Visible Light 16h 26m
Length of Day
15h 16m
Waxing Gibbous, 98% of the Moon is Illuminated
Jul 2
Waxing Gibbous
Jul 3
Full
Jul 10
Last Quarter
Jul 19
New
Jul 26
First Quarter

Hourly Weather History & Observations

Time (EDT) Temp. Heat Index Dew Point Humidity Pressure Visibility Wind Dir Wind Speed Gust Speed Precip Events Conditions
12:53 AM 70.0 °F - 57.0 °F 63% 29.98 in 10.0 mi East 4.6 mph - N/A   Clear
1:53 AM 68.0 °F - 55.9 °F 65% 29.97 in 10.0 mi East 3.5 mph - N/A   Clear
2:53 AM 68.0 °F - 55.0 °F 63% 29.98 in 10.0 mi ENE 5.8 mph - N/A   Clear
3:53 AM 64.9 °F - 55.0 °F 70% 29.98 in 10.0 mi ESE 3.5 mph - N/A   Clear
4:53 AM 63.0 °F - 55.0 °F 75% 29.97 in 10.0 mi East 3.5 mph - N/A   Clear
5:53 AM 64.9 °F - 55.0 °F 70% 29.99 in 10.0 mi Calm Calm - N/A   Clear
6:53 AM 63.0 °F - 55.9 °F 78% 30.01 in 10.0 mi Calm Calm - N/A   Clear
7:53 AM 72.0 °F - 57.9 °F 61% 30.01 in 10.0 mi SE 3.5 mph - N/A   Clear
8:53 AM 79.0 °F - 61.0 °F 54% 30.01 in 10.0 mi SSE 8.1 mph - N/A   Clear
9:53 AM 84.0 °F 84.4 °F 61.0 °F 46% 30.02 in 10.0 mi Variable 4.6 mph - N/A   Clear
10:53 AM 86.0 °F 85.7 °F 60.1 °F 41% 30.02 in 10.0 mi South 3.5 mph - N/A   Clear
11:53 AM 90.0 °F 89.1 °F 59.0 °F 35% 30.02 in 10.0 mi Variable 3.5 mph - N/A   Clear
12:53 PM 91.9 °F 90.8 °F 57.9 °F 32% 30.01 in 10.0 mi Variable 3.5 mph - N/A   Clear
1:53 PM 93.9 °F 92.6 °F 57.0 °F 29% 29.99 in 10.0 mi West 9.2 mph - N/A   Partly Cloudy
2:53 PM 93.9 °F 92.6 °F 57.0 °F 29% 29.97 in 10.0 mi Variable 5.8 mph - N/A   Clear
3:53 PM 93.9 °F 92.2 °F 55.9 °F 28% 29.96 in 10.0 mi North 5.8 mph - N/A   Clear
4:53 PM 93.9 °F 92.0 °F 55.0 °F 27% 29.96 in 10.0 mi Variable 4.6 mph - N/A   Clear
5:53 PM 95.0 °F 93.4 °F 55.9 °F 27% 29.94 in 10.0 mi WNW 4.6 mph - N/A   Clear
6:53 PM 93.0 °F 91.4 °F 55.9 °F 29% 29.92 in 10.0 mi South 3.5 mph - N/A   Scattered Clouds
7:53 PM 90.0 °F 88.8 °F 57.9 °F 34% 29.92 in 10.0 mi South 3.5 mph - N/A   Clear
8:53 PM 87.1 °F 85.9 °F 57.0 °F 36% 29.92 in 10.0 mi East 6.9 mph - N/A   Clear
9:53 PM 82.9 °F 83.2 °F 60.1 °F 46% 29.93 in 10.0 mi East 8.1 mph - N/A   Clear
10:53 PM 79.0 °F - 62.1 °F 56% 29.94 in 10.0 mi ESE 4.6 mph - N/A   Clear
11:53 PM 77.0 °F - 64.0 °F 64% 29.94 in 10.0 mi ESE 4.6 mph - N/A   Clear